Location: Unspecified
(50.7693°N, 0.0000°E)
Time: 21:35:25
(UTC+00:00)

SR - All Passes

Search period start: 25 June 2019 00:00
Search period end: 05 July 2019 00:00
Orbit: 582 x 874 km, 66.7° (Epoch: 24 June)

Date Brightness Start Highest point End Pass type
(mag) Time Alt. Az. Time Alt. Az. Time Alt. Az.
25 Jun - 02:24:40 10° S 02:28:11 26° ESE 02:31:47 10° ENE visible
25 Jun - 04:05:50 10° WSW 04:09:57 48° NW 04:14:16 10° NNE daylight
25 Jun - 05:50:32 10° WNW 05:53:06 15° NNW 05:55:47 10° NNE daylight
25 Jun - 07:35:44 10° NNW 07:37:09 11° N 07:38:35 10° NNE daylight
25 Jun - 09:17:23 10° NNW 09:20:59 21° NNE 09:24:46 10° E daylight
25 Jun - 10:58:56 10° NW 11:03:44 76° NE 11:08:58 10° SE daylight
25 Jun - 12:41:46 10° WNW 12:45:22 20° WSW 12:49:11 10° SSW daylight
26 Jun - 01:36:58 10° SE 01:38:57 13° ESE 01:40:58 10° ENE visible
26 Jun - 03:15:59 10° SW 03:20:15 88° NW 03:24:41 10° NE daylight
26 Jun - 04:59:40 10° W 05:02:57 20° NNW 05:06:21 10° NNE daylight
26 Jun - 06:45:26 10° NNW 06:46:47 11° N 06:48:10 10° NNE daylight
26 Jun - 08:27:59 10° NNW 08:30:49 16° NNE 08:33:47 10° ENE daylight
26 Jun - 10:09:23 10° NNW 10:14:00 45° NE 10:18:57 10° ESE daylight
26 Jun - 11:51:32 10° NW 11:56:01 36° WSW 12:00:49 10° S daylight
27 Jun - 02:26:38 10° SSW 02:30:42 47° ESE 02:34:56 10° NE visible
27 Jun - 04:09:07 10° W 04:12:56 30° NW 04:16:54 10° NNE daylight
27 Jun - 05:54:31 10° NW 05:56:27 12° NNW 05:58:25 10° NNE daylight
27 Jun - 07:38:30 10° NNW 07:40:33 13° NNE 07:42:40 10° NE daylight
27 Jun - 09:19:57 10° NNW 09:24:06 29° NE 09:28:33 10° E daylight
27 Jun - 11:01:41 10° NW 11:06:30 66° WSW 11:11:44 10° SSE daylight
27 Jun - 12:46:09 10° W 12:47:47 11° WSW 12:49:27 10° SW daylight
28 Jun - 01:37:54 10° SSE 01:41:20 24° ESE 01:44:52 10° ENE visible
28 Jun - 03:18:55 10° WSW 03:23:04 50° NW 03:27:24 10° NNE daylight
28 Jun - 05:03:31 10° WNW 05:06:11 16° NNW 05:08:57 10° NNE daylight
28 Jun - 06:48:47 10° NNW 06:50:13 11° N 06:51:41 10° NNE daylight
28 Jun - 08:30:31 10° NNW 08:34:04 21° NNE 08:37:50 10° ENE daylight
28 Jun - 10:12:02 10° NW 10:16:52 73° NE 10:22:07 10° SE daylight
28 Jun - 11:54:47 10° WNW 11:58:33 22° WSW 12:02:31 10° SSW daylight
29 Jun - 00:50:23 10° SE 00:52:08 12° ESE 00:53:54 10° E visible
29 Jun - 02:29:07 10° SW 02:33:22 88° ESE 02:37:49 10° NE visible
29 Jun - 04:12:41 10° W 04:16:02 21° NNW 04:19:31 10° NNE daylight
29 Jun - 05:58:24 10° NNW 05:59:51 11° N 06:01:19 10° NNE daylight
29 Jun - 07:41:05 10° NNW 07:43:54 15° NNE 07:46:50 10° ENE daylight
29 Jun - 09:22:31 10° NNW 09:27:07 44° NE 09:32:04 10° ESE daylight
29 Jun - 11:04:36 10° NW 11:09:09 39° WSW 11:14:04 10° S daylight
30 Jun - 01:39:48 10° SSW 01:43:51 45° ESE 01:48:02 10° NE visible
30 Jun - 03:22:10 10° WSW 03:26:01 32° NW 03:30:04 10° NNE daylight
30 Jun - 05:07:29 10° NW 05:09:31 13° NNW 05:11:37 10° NNE daylight
30 Jun - 06:51:35 10° NNW 06:53:38 13° NNE 06:55:44 10° NE daylight
30 Jun - 08:33:03 10° NNW 08:37:13 29° NE 08:41:39 10° E daylight
30 Jun - 10:14:47 10° NW 10:19:39 69° WSW 10:24:56 10° SSE daylight
30 Jun - 11:58:56 10° W 12:00:58 12° WSW 12:03:03 10° SW daylight
01 Jul - 00:51:08 10° SSE 00:54:30 23° ESE 00:57:57 10° ENE visible
01 Jul - 02:31:59 10° SW 02:36:10 53° NW 02:40:33 10° NNE visible
01 Jul - 04:16:30 10° WNW 04:19:16 16° NNW 04:22:07 10° NNE daylight
01 Jul - 06:01:48 10° NNW 06:03:17 11° N 06:04:48 10° NNE daylight
01 Jul - 07:43:38 10° NNW 07:47:10 20° NNE 07:50:53 10° ENE daylight
01 Jul - 09:25:10 10° NW 09:30:00 70° NE 09:35:17 10° SE daylight
01 Jul - 11:07:50 10° WNW 11:11:42 23° WSW 11:15:50 10° SSW daylight
02 Jul - 00:03:51 10° SE 00:05:18 12° ESE 00:06:46 10° E visible
02 Jul - 01:42:14 10° SSW 01:46:29 83° SE 01:50:57 10° NE visible
02 Jul - 03:25:42 10° W 03:29:07 22° NNW 03:32:41 10° NNE daylight
02 Jul - 05:11:22 10° NNW 05:12:55 11° N 05:14:30 10° NNE daylight
02 Jul - 06:54:12 10° NNW 06:56:59 15° NNE 06:59:53 10° ENE daylight
02 Jul - 08:35:38 10° NNW 08:40:14 42° NE 08:45:12 10° ESE daylight
02 Jul - 10:17:42 10° NW 10:22:19 41° WSW 10:27:18 10° S daylight
03 Jul - 00:52:58 10° S 00:56:59 42° ESE 01:01:10 10° NE visible
03 Jul - 02:35:12 10° WSW 02:39:07 33° NW 02:43:14 10° NNE visible
03 Jul - 04:20:26 10° NW 04:22:35 13° NNW 04:24:47 10° NNE daylight
03 Jul - 06:04:40 10° NNW 06:06:42 13° NNE 06:08:47 10° NE daylight
03 Jul - 07:46:11 10° NNW 07:50:19 28° NE 07:54:44 10° E daylight
03 Jul - 09:27:54 10° NW 09:32:48 73° SW 09:38:07 10° SSE daylight
03 Jul - 11:11:47 10° WNW 11:14:09 13° WSW 11:16:35 10° SW daylight
04 Jul - 00:04:22 10° SSE 00:07:39 22° ESE 00:11:00 10° ENE visible
04 Jul - 01:45:04 10° SW 01:49:17 56° NW 01:53:43 10° NNE visible
04 Jul - 03:29:29 10° WNW 03:32:20 17° NNW 03:35:18 10° NNE daylight
04 Jul - 05:14:49 10° NNW 05:16:21 11° N 05:17:55 10° NNE daylight
04 Jul - 06:56:45 10° NNW 07:00:15 20° NNE 07:03:57 10° ENE daylight
04 Jul - 08:38:16 10° NNW 08:43:08 67° NE 08:48:26 10° SE daylight
04 Jul - 10:20:52 10° WNW 10:24:53 24° WSW 10:29:09 10° SSW daylight
04 Jul - 23:17:23 10° ESE 23:18:28 11° ESE 23:19:34 10° E visible
